Tracking 29924 objects as of 4-Dec-2024
HD Live streaming from Space Station
objects crossing your sky now

STARLINK-6040

Track STARLINK-6040 now!
10-day predictions
STARLINK-6040 is classified as:


NORAD ID: 56809
Int'l Code: 2023-078AU
Perigee: 577.2 km
Apogee: 581.2 km
Inclination: 70.0 °
Period: 96.1 minutes
Semi major axis: 6950 km
RCS: Unknown
Launch date: May 31, 2023
Source: United States (US)
Launch site: AIR FORCE WESTERN TEST RANGE (AFWTR)
Your satellite tracking list
Your tracking list is empty




NASA's NSSDC Master Catalog

Two Line Element Set (TLE):
1 56809U 23078AU  24338.97685418  .00000812  00000-0  75842-4 0  9997
2 56809  69.9953  65.9285 0002886 268.4937  91.5891 14.98325942 83932
Source of the keplerian elements: AFSPC